Location: Newark
(58.8333°N, 23.5833°E)
Time: 10:52:04
(UTC+00:00)

A-11 Canister half - Pass Details

Date: 20 November 2019
Orbit: 1515 x 1685 km, 47.2° (Epoch: 10 December)

Event Time Altitude Azimuth Distance (km) Brightness Sun altitude
Rises 15:41:11 0° 208° (SSW) 4,884 12.4 -13.0°
Reaches altitude 10° 15:44:56 10° 197° (SSW) 3,917 11.6 -13.5°
Maximum altitude 15:52:47 27° 145° (SE) 2,826 10.2 -14.4°
Enters shadow 15:58:52 15° 101° (E) 3,541 10.3 -15.2°
Drops below altitude 10° 16:00:42 10° 93° (E) 3,951 - -15.4°
Sets 16:04:28 0° 83° (E) 4,935 - -15.9°
